EST,Max TemperatureF,Mean TemperatureF,Min TemperatureF,Max Dew PointF,MeanDew PointF,Min DewpointF,Max Humidity, Mean Humidity, Min Humidity, Max Sea Level PressureIn, Mean Sea Level PressureIn, Min Sea Level PressureIn, Max VisibilityMiles, Mean VisibilityMiles, Min VisibilityMiles, Max Wind SpeedMPH, Mean Wind SpeedMPH, Max Gust SpeedMPH,PrecipitationIn, CloudCover, Events, WindDirDegrees
2012-12-1,24,18,12,21,14,4,88,71,53,30.71,30.64,30.56,10,7,1,5,1,,0.03,8,Rain-Snow,30
2012-12-2,50,37,24,48,35,21,100,91,85,30.54,30.25,29.98,10,4,0,17,2,24,0.30,8,Fog-Rain,223
2012-12-3,51,39,27,45,37,24,100,86,56,30.34,30.08,29.96,10,5,0,8,3,16,0.01,3,Fog,247
2012-12-4,52,38,24,50,39,21,94,90,81,30.34,30.21,29.98,10,7,2,10,2,21,0.02,7,,192
2012-12-5,55,44,33,52,36,16,93,69,48,30.07,29.90,29.78,10,9,4,13,8,24,0.11,7,Rain,241
2012-12-6,37,29,21,18,15,13,85,57,37,30.32,30.25,30.08,10,10,10,10,6,18,0.00,2,,310
2012-12-7,42,30,19,37,29,15,100,83,67,30.31,30.15,30.05,10,8,1,10,1,,0.05,6,Rain,209
2012-12-8,39,36,33,38,35,32,100,94,87,30.05,29.98,29.88,9,3,1,4,0,,0.20,8,Rain,-1
2012-12-9,45,36,28,36,31,25,100,81,46,30.34,30.15,29.91,10,6,0,8,2,,0.00,3,Fog,282
2012-12-10,42,38,33,39,33,26,100,92,73,30.24,29.79,29.49,10,4,1,8,3,,0.30,8,Rain,32
2012-12-11,42,33,23,36,29,19,93,81,57,30.14,29.83,29.54,10,9,4,5,1,,0.01,4,Rain,230
2012-12-12,36,27,18,21,18,14,89,76,46,30.41,30.33,30.17,10,10,10,5,0,,0.00,0,,250
2012-12-13,41,30,18,27,18,14,88,74,41,30.47,30.40,30.27,10,10,8,4,0,,0.00,0,,280
2012-12-14,43,32,21,28,23,17,88,71,45,30.26,30.11,30.01,10,10,8,9,1,,0.00,0,,234
2012-12-15,37,27,16,24,8,0,61,48,33,30.41,30.32,30.14,10,10,10,7,3,,0.00,1,,40
2012-12-16,23,19,15,16,8,2,86,61,42,30.41,30.32,30.24,10,8,2,6,1,,0.01,7,Snow,45
2012-12-17,33,27,21,31,23,16,93,87,80,30.23,30.11,29.95,4,2,0,7,3,,0.40,8,Fog-Snow,33
2012-12-18,46,40,33,43,40,32,93,90,86,29.92,29.60,29.40,9,3,2,18,9,32,1.23,8,Rain,69
2012-12-19,39,37,34,38,33,30,93,89,82,30.01,29.62,29.39,10,7,2,10,5,18,0.10,8,Snow,5
2012-12-20,36,33,30,30,28,26,93,80,67,30.23,30.15,30.04,10,10,10,6,1,,0.00,7,,63
2012-12-21,52,42,32,49,40,27,96,88,81,30.09,29.49,29.13,10,6,1,21,8,47,1.12,8,Rain-Snow,125
2012-12-22,44,36,27,37,28,11,89,73,51,29.52,29.30,29.14,10,10,3,12,6,22,0.03,8,Rain-Snow,245
2012-12-23,34,28,21,19,12,8,85,58,37,29.79,29.71,29.55,10,10,10,10,5,22,0.00,3,,268
2012-12-24,34,28,21,24,16,11,85,66,38,30.08,29.99,29.80,10,10,10,7,2,,0.00,1,,270
2012-12-25,28,24,19,21,17,10,81,70,58,30.23,30.09,30.05,10,8,1,5,0,,0.00,4,Snow,-1
2012-12-26,33,24,14,16,12,8,84,61,43,30.35,30.28,30.14,10,10,10,6,1,,0.00,1,,63
2012-12-27,34,29,24,31,26,16,93,86,66,30.09,29.65,29.46,10,2,0,14,7,25,1.20,8,Fog-Snow,38
2012-12-28,34,26,17,25,20,13,86,74,56,29.98,29.75,29.54,10,9,2,9,5,16,0.01,3,Snow,303
2012-12-29,27,18,9,25,19,5,93,85,72,30.00,29.79,29.46,10,5,0,7,2,,0.37,5,Fog-Snow,46
2012-12-30,27,20,14,21,15,1,86,72,54,29.81,29.52,29.40,10,5,0,15,7,31,0.12,6,Fog-Snow,316
2012-12-31,32,24,15,18,11,2,89,64,47,29.91,29.83,29.70,10,10,10,14,6,29,0.00,1,,284